Location: Bretagne
(43.8474°N, 0.4650°W)
Time: 14:34:59
(UTC+00:00)

SL-08 R/B - Pass Details

Date: 15 January 2026
Orbit: 950 x 1017 km, 82.9° (Epoch: 17 February)

Event Time Altitude Azimuth Distance (km) Brightness Sun altitude
Rises 18:43:35 0° 353° (N) 3,750 7.5 -20.0°
Reaches altitude 10° 18:46:08 10° 355° (N) 2,802 6.8 -20.5°
Maximum altitude 18:52:37 78° 81° (E) 1,042 4.4 -21.6°
Drops below altitude 10° 18:59:04 10° 168° (SSE) 2,792 6.8 -22.8°
Sets 19:01:36 0° 170° (S) 3,737 7.5 -23.2°
